Погода в Новой Калами

Россия / Красноярский край     60°10′25″N   93°02′45″E
темп.,
°C
ветер,
м/с
пор.,
м/с
влажн.,
%
обл.,
%
осадки,
мм/ч
давл.,
гПа
погр.,
м
23 апреля, пт
пт2301:00−11ююз119757 0.0 104610
04:00−11ю119865 0.0 10469
07:00−5юз11915 0.0 104665
10:000сз127890 0.0 1046581
13:00+1сз227154 0.0 1045807
16:00+3ссз22677 0.0 1044917
19:00+1ссв11865 0.0 104425
22:00−6юв11955 0.0 104510
24 апреля, сб
сб2401:00−7юв11965 0.0 104510
04:00−8вюв119726 0.0 104410
07:00−3всв11905 0.0 104268
10:00+2в237653 0.0 1038699
13:00+4всв2268100 0.0 10351078
16:00+3всв237697 0.0 1033593
19:00+1в1193100 0.1 103211
22:00−1вюв1197100 0.0 103111
25 апреля, вс
вс2501:00−1зюз0098100 0.0 102913
04:00−2з1199100 0.0 102812
07:00−1зсз1292100 0.0 1027101
10:00+1сз3477100 0.0 1026668
13:00+3сз3564100 0.0 10251011
16:00+4ссз577299 0.0 10241169
19:00+2зсз3993100 0.1 1025649
22:000сз3898100 0.1 1026812
26 апреля, пн
пн2601:00−1сз3795100 0.4 1026776
04:00−1зсз3892100 0.1 1026751
07:00−2сз3683100 0.3 1028771
10:000сз34645 0.0 1027776
13:00+3сз34533 0.0 10261039
16:00+4сз34525 0.0 10261193
19:00+3ссз11748 0.0 102623
22:00−1юз11855 0.0 102710
27 апреля, вт
вт2701:00−2ююз119251 0.0 102615
04:00−3ююз119656 0.0 102518
07:00−1ю138923 0.0 1024202
10:00+4ююз237137 0.0 1021730
13:00+7ююз235385 0.0 10181556
16:00+7юз345979 0.1 10161200
19:00+4ююз0179100 0.1 101610
22:00+1юв218698 0.0 101611